Powrót do katalogu

STARLINK-30396

AktywnyŁącznośćVLEO
NORAD 57964·PAYLOAD·🇺🇸 United States

Wystrzelony Sep 30, 2023 z Cape Canaveral Space Force Station

Loading…

Następne Przeloty (najbliższe 24 godziny)

TLE

ŚwieżeSource: CelesTrak SupGP

Epoka: Sep 14, 2026, 22:10 UTC

1 57964C 23151A   26257.92409722 -.00017445  00000+0 -63197-3 0  2578
2 57964  43.0033 347.6212 0001626 266.8187  99.3102 15.27581849    19

Śledź STARLINK-30396 w czasie rzeczywistym z AllMySat

Download on the App Store